星链-2435 (STARLINK-2435 )

导读

STARLINK-2435是美国太空探索技术公司SpaceX星链星座中的成员,于2021年3月11日发射升空。星链星座旨在构建全球低轨卫星互联网系统,为全球缺乏传统基础设施的偏远地区提供高速低延迟宽带互联网服务,STARLINK-2435作为组网卫星,助力实现更稳定的全球网络覆盖,推动太空互联网基础设施建设。

基本信息
目录编号:
47843
目录名称:
STARLINK-2435
国际标识:
2021-018BJ
轨道中心:
EARTH
卫星名称:
星链-2435
卫星全名:
星链-2435 (STARLINK-2435 )
卫星状态:
在轨 (已飞行2010 天)
发射日期:
2021-03-11 UTC
国别 :
美国 (US)
星等 :
--
该卫星已列入 空间交会检测服务 Space Conjunction Data Service (SCDS) ,当前飞行风险评估等级: 无高风险
轨道信息
数据来源 国际轨道数据
星历时间: 2026-09-11T07:23:06+0800
10小时前
查看轨道信息
半长轴: 6848.893km
偏心率: 0.0001341
轨道倾角: 53.159°
近地点辐角 100.273°
升交点赤经 113.032°
平近点角 259.842°
近地点: 469.837km
远地点: 471.675km
周期: 94.014分钟
每日圈数: 15.316949
详细信息
固有亮度:
5
最大亮度:
2.5
卫星平台:
Starlink V1.0
覆盖范围:
全球
运营商:
太空探索技术公司
运营商所在国:
美国
制造商(研发单位):
太空探索技术公司
制造商所在国:
美国
使用方式:
暂无
卫星简介
星链(Starlink)计划是由太空探索技术公司(SpaceX)提出的一个巨型低轨卫星互联网星座项目,计划在2019年至2024年间在太空搭建由约1.2万颗卫星组成的“星链”网络,其中1584颗将部署在地球上空550千米处的近地轨道,并从2020年开始工作。该卫星仍在工作。
2D轨道图
3D轨道图
轨道高度分析图
轨道倾角分析图
轨道综合分析图
查看轨道综合分析图
与全量物体交会距离演化趋势
与全量物体交会风险概率演化趋势